Regional Weather Roundup
Issued by NWS

Home | Current Version | Previous Version | Text Only | Print | Product List | Glossary Off
Versions: 1 2 3 4 5 6 7 8 9 10 11 12 13 14 15 16 17 18 19 20 21 22 23 24 25 26 27 28 29 30 31 32 33 34 35 36 37 38 39 40 41 42 43 44 45 46 47 48 49 50

000
ASUS43 KMKX 070621
RWRWI

WISCONSIN REGIONAL WEATHER ROUNDUP
NATIONAL WEATHER SERVICE MILWAUKEE/SULLIVAN WI
100 AM CDT THU MAY 07 2015

NOTE: "FAIR" INDICATES FEW OR NO CLOUDS BELOW 12,000 FEET WITH NO
SIGNIFICANT WEATHER AND/OR OBSTRUCTIONS TO VISIBILITY.

WIZ001-002-006>008-014>016-023>028-070700-
NORTHWEST WISCONSIN

CITY           SKY/WX    TMP DP  RH WIND       PRES   REMARKS
SUPERIOR ARPT  MOCLDY    42  37  84 NE5       29.92F
6HR MIN TEMP:  42; 6HR MAX TEMP:  45;

ASHLAND        CLOUDY    50  48  93 CALM      29.93F
6HR MIN TEMP:  47; 6HR MAX TEMP:  54; 6HR PCP:  0.04;

HAYWARD        MOCLDY    63  58  83 S14G21    29.93F
6HR MIN TEMP:  63; 6HR MAX TEMP:  72; 6HR PCP:  0.04;

SIREN          MOCLDY    64  58  78 S13       29.90S
6HR MIN TEMP:  64; 6HR MAX TEMP:  73;

CUMBERLAND     MOCLDY    59  57  94 SE9       29.93S
RICE LAKE      CLOUDY    62  58  88 SE9       29.94F
6HR MIN TEMP:  62; 6HR MAX TEMP:  73; 6HR PCP:  0.13;

CHETEK         MOCLDY    62  60  93 E8        29.94S
6HR MIN TEMP:  61; 6HR MAX TEMP:  73; 6HR PCP:  0.17;

LADYSMITH      CLOUDY    62  60  92 SE10      29.98F
6HR MIN TEMP:  62; 6HR MAX TEMP:  72; 6HR PCP:  0.38;

EAU CLAIRE     CLOUDY    63  59  87 S6        29.93F
6HR MIN TEMP:  63; 6HR MAX TEMP:  75; 6HR PCP:  0.20;

MENOMONIE      MOCLDY    62  60  94 SE7       29.93S
6HR MIN TEMP:  62; 6HR MAX TEMP:  72; 6HR PCP:  0.36;

NEW RICHMOND   MOCLDY    63  58  86 SE9       29.90F
6HR MIN TEMP:  63; 6HR MAX TEMP:  65; 6HR PCP:  0.02;

OSCEOLA        MOCLDY    64  60  89 SE13      29.91F
6HR MIN TEMP:  64; 6HR MAX TEMP:  67;

$$

WIZ003>005-009-010-017-018-070700-
NORTH CENTRAL WISCONSIN

CITY           SKY/WX    TMP DP  RH WIND       PRES   REMARKS
MANITOWISH WTR MOCLDY    60  57  89 S7        30.02S
6HR MIN TEMP:  59; 6HR MAX TEMP:  68;

ARBOR VITAE    CLOUDY    62  57  84 SE6       30.03S
6HR MIN TEMP:  62; 6HR MAX TEMP:  70;

WOODRUFF       CLOUDY    62  57  84 SE6       30.03S
6HR MIN TEMP:  62; 6HR MAX TEMP:  70;

RHINELANDER    CLOUDY    59  54  83 S7        30.05S
6HR MIN TEMP:  57; 6HR MAX TEMP:  68;

EAGLE RIVER    PTCLDY    57  54  89 S3        30.04S
6HR MIN TEMP:  56; 6HR MAX TEMP:  69;

LAND O LAKES   PTCLDY    58  53  83 S3        30.05S
6HR MIN TEMP:  58; 6HR MAX TEMP:  70;

PHILLIPS       MOCLDY    60  58  94 SE7       29.99F
6HR MIN TEMP:  60; 6HR MAX TEMP:  67; 6HR PCP:  0.02;

TOMAHAWK       PTCLDY    57  55  91 SE5       30.04F FOG
6HR MIN TEMP:  57; 6HR MAX TEMP:  66;

MEDFORD        MOCLDY    60  57  90 SE8       30.01F
6HR MIN TEMP:  60; 6HR MAX TEMP:  70; 6HR PCP:  0.04;

MERRILL        PTCLDY   N/A N/A N/A SE6       30.05S
$$

WIZ029-030-035-036-043>047-070700-
CENTRAL WISCONSIN

CITY           SKY/WX    TMP DP  RH WIND       PRES   REMARKS
WAUSAU         PTCLDY    59  56  89 E6        30.02F
6HR MIN TEMP:  59; 6HR MAX TEMP:  70;

MOSINEE        CLOUDY    59  55  88 SE8       30.04F
MARSHFIELD     CLOUDY    62  57  83 SE7       30.01F
6HR MIN TEMP:  62; 6HR MAX TEMP:  72;

STEVENS POINT  CLOUDY    59  55  84 SE7       30.04F
6HR MIN TEMP:  58; 6HR MAX TEMP:  67;

WAUPACA        CLEAR     57  54  92 CALM      30.05F FOG
6HR MIN TEMP:  57; 6HR MAX TEMP:  69;

WAUTOMA        MOCLDY    55  55 100 CALM      30.04F FOG
6HR MIN TEMP:  55; 6HR MAX TEMP:  73;

WISC RAPIDS    PTCLDY    63  56  78 SE8       30.03F
6HR MIN TEMP:  62; 6HR MAX TEMP:  72;

CAMP DOUGLAS   CLOUDY    65  65 100 SE6       29.99F
6HR MIN TEMP:  63; 6HR MAX TEMP:  73;

$$

WIZ011>013-019>022-031-037>040-048>050-070700-
NORTHEAST WISCONSIN

CITY           SKY/WX    TMP DP  RH WIND       PRES   REMARKS
ANTIGO         MOCLDY    54  53  97 SE10      30.06S FOG
SHAWANO        PTCLDY    54  52  91 E5        30.07S FOG
6HR MIN TEMP:  54; 6HR MAX TEMP:  66;

OCONTO         PTCLDY    48  43  82 CALM      30.07F
6HR MIN TEMP:  47; 6HR MAX TEMP:  60;

STURGEON BAY   PTCLDY    48  36  61 SE8       30.09F
6HR MIN TEMP:  48; 6HR MAX TEMP:  55;

GREEN BAY      PTCLDY    51  49  92 E3        30.07F FOG
6HR MIN TEMP:  51; 6HR MAX TEMP:  68;

MANITOWOC        N/A    N/A N/A N/A MISG        N/A
APPLETON       PTCLDY    54  50  87 E5        30.05F FOG
CLINTONVILLE   PTCLDY    55  52  88 CALM      30.06S FOG
OSHKOSH        CLEAR     54  51  90 S6        30.05S FOG
6HR MIN TEMP:  54; 6HR MAX TEMP:  68;

$$

WIZ032>034-041-042-053>061-070700-
SOUTHWEST WISCONSIN

CITY           SKY/WX    TMP DP  RH WIND       PRES   REMARKS
LA CROSSE      MOCLDY    67  59  75 SE5       29.94F
6HR MIN TEMP:  65; 6HR MAX TEMP:  78; 6HR PCP:  0.03;

SPARTA         LGT RAIN  63  59  89 E3        29.98F
6HR MIN TEMP:  63; 6HR MAX TEMP:  74; 6HR PCP:  0.07;

VIROQUA        CLOUDY    64  58  81 SE8       29.98F
6HR MIN TEMP:  64; 6HR MAX TEMP:  73;

BOSCOBEL       CLOUDY    65  59  81 CALM      29.99S
6HR MIN TEMP:  64; 6HR MAX TEMP:  79; 6HR PCP: TRACE;

PRAIRIE DU CHI CLOUDY    67  57  70 SE6       29.96F
6HR MIN TEMP:  65; 6HR MAX TEMP:  69;

PLATTEVILLE    CLOUDY    64  60  86 E10       30.00S
6HR MIN TEMP:  64; 6HR MAX TEMP:  74;

$$

WIZ056-057-062-063-064-067-068-070700-
SOUTH CENTRAL WISCONSIN

CITY           SKY/WX    TMP DP  RH WIND       PRES   REMARKS
REEDSBURG      MOCLDY    64  60  90 CALM      30.00S
6HR MIN TEMP:  63; 6HR MAX TEMP:  73;

BARABOO/DELLS  MOCLDY    63  58  83 SE5       30.02S HAZE
6HR MIN TEMP:  61; 6HR MAX TEMP:  72;

LONE ROCK      CLOUDY    64  60  87 E8        30.00S
6HR MIN TEMP:  63; 6HR MAX TEMP:  76;

MINERAL POINT  CLOUDY    68  59  73 E7        30.01F
MADISON        CLEAR     61  56  83 SE7       30.03F HAZE
6HR MIN TEMP:  61; 6HR MAX TEMP:  74;

MIDDLETON      CLEAR     62  58  87 SE6       30.03F
6HR MIN TEMP:  62; 6HR MAX TEMP:  75;

WATERTOWN      PTCLDY    56  56 100 SE3       30.05S FOG
6HR MIN TEMP:  56; 6HR MAX TEMP:  67;

MONROE         PTCLDY    61  57  88 SE10      30.03S FOG
JANESVILLE     CLEAR     59  55  88 SE6       30.04F FOG
$$

WIZ051-052-058>065-066-070>072-070700-
SOUTHEAST WISCONSIN

CITY           SKY/WX    TMP DP  RH WIND       PRES   REMARKS
MILWAUKEE      PTCLDY    46  46 100 CALM      30.08S FOG
6HR MIN TEMP:  45; 6HR MAX TEMP:  47;

WAUKESHA       FOG       46  46 100 CALM      30.08S VSB 1/4
MILWAUKEE/TIMM FOG       46  45  93 CALM      30.08F VSB 1/2
RACINE         CLEAR     45  43  93 CALM      30.09S
6HR MIN TEMP:  45; 6HR MAX TEMP:  51;

BURLINGTON     CLEAR     50  50 100 CALM      30.07S FOG
6HR MIN TEMP:  50; 6HR MAX TEMP:  63;

KENOSHA        FOG       47  46  97 NE3       30.07S VSB 1
6HR MIN TEMP:  46; 6HR MAX TEMP:  56;

FOND DU LAC    CLEAR     56  52  86 S8        30.05S FOG
6HR MIN TEMP:  56; 6HR MAX TEMP:  67;

SHEBOYGAN      MOCLDY    45  44  97 CALM      30.08S FOG
6HR MIN TEMP:  44; 6HR MAX TEMP:  49;

WEST BEND      FOG       50  46  87 CALM      30.07F VSB<1/4
JUNEAU         CLEAR     56  54  90 SE5       30.06F FOG
6HR MIN TEMP:  56; 6HR MAX TEMP:  66;

$$

LSZ147-162-070700-
LAKE SUPERIOR

STATION/POSITION TIME  TEMP    WIND        PRES    WAVE
                       AIR SEA DIR/SP/G            HT/PER
                 (UTC) (F)     (DEG/KT/KT) (MB)    (FT/S)
W MID LAKE BUOY  0550   43 35  140/  8/  8 1015.3R   1/ 4
DEVILS ISLAND    0600   40      40/  7/  9 1014.4F
PORT WING        0540   41      30/  6/  9 1013.2F
SAXON HARBOR     0500          180/  3/  9 1013.9
$$

LMZ867-665-643>646-070700-
LAKE MICHIGAN

STATION/POSITION TIME  TEMP    WIND        PRES    WAVE
                       AIR SEA DIR/SP/G            HT/PER
                 (UTC) (F)     (DEG/KT/KT) (MB)    (FT/S)
CHAMBERS ISLAND  0500   49      CALM  /  1 1019.0S


USA.gov is the U.S. government's official web portal to all federal, state and local government web resources and services.